TimeEST,TemperatureF,Dew PointF,Humidity,Sea Level PressureIn,VisibilityMPH,Wind Direction,Wind SpeedMPH,Gust SpeedMPH,PrecipitationIn,Events,Conditions,WindDirDegrees,DateUTC
12:51 AM,37.0,30.0,76,30.21,10.0,SSE,4.6,-,N/A,,Mostly Cloudy,150,2012-11-10 05:51:00
1:51 AM,41.0,32.0,70,30.22,10.0,Calm,Calm,-,N/A,,Overcast,0,2012-11-10 06:51:00
2:51 AM,42.1,35.1,76,30.27,10.0,North,8.1,-,0.00,Rain,Light Rain,360,2012-11-10 07:51:00
3:51 AM,41.0,37.0,86,30.27,7.0,Calm,Calm,-,0.01,Rain,Light Rain,0,2012-11-10 08:51:00
4:51 AM,41.0,37.9,89,30.28,6.0,Calm,Calm,-,0.01,,Overcast,0,2012-11-10 09:51:00
4:58 AM,41.0,37.4,87,30.24,7.0,South,3.5,-,N/A,,Overcast,180,2012-11-10 09:58:00
5:51 AM,41.0,37.9,89,30.27,6.0,SE,3.5,-,0.00,,Light Drizzle,130,2012-11-10 10:51:00
6:13 AM,41.0,37.4,87,30.23,7.0,SSE,3.5,-,0.00,,Overcast,150,2012-11-10 11:13:00
6:51 AM,41.0,37.9,89,30.28,7.0,South,4.6,-,0.00,,Overcast,170,2012-11-10 11:51:00
7:51 AM,43.0,36.0,76,30.29,10.0,SSE,4.6,-,N/A,,Overcast,150,2012-11-10 12:51:00
8:51 AM,45.0,36.0,71,30.30,10.0,SSE,4.6,-,N/A,,Overcast,150,2012-11-10 13:51:00
9:51 AM,48.0,37.0,66,30.29,10.0,South,5.8,-,N/A,,Mostly Cloudy,170,2012-11-10 14:51:00
10:51 AM,53.1,37.9,57,30.28,10.0,South,5.8,-,N/A,,Mostly Cloudy,180,2012-11-10 15:51:00
11:51 AM,60.1,37.0,42,30.24,10.0,SSW,10.4,-,N/A,,Mostly Cloudy,210,2012-11-10 16:51:00
12:51 PM,62.1,36.0,38,30.22,10.0,South,9.2,-,N/A,,Mostly Cloudy,190,2012-11-10 17:51:00
1:51 PM,63.0,35.1,35,30.20,10.0,South,6.9,-,N/A,,Mostly Cloudy,190,2012-11-10 18:51:00
2:51 PM,64.0,33.1,31,30.19,10.0,SSW,10.4,-,N/A,,Mostly Cloudy,200,2012-11-10 19:51:00
3:51 PM,66.0,33.1,29,30.19,10.0,SSW,8.1,-,N/A,,Scattered Clouds,200,2012-11-10 20:51:00
4:51 PM,64.4,33.8,32,30.17,10.0,South,3.5,-,N/A,,Scattered Clouds,190,2012-11-10 21:51:00
5:51 PM,60.8,33.8,36,30.19,10.0,Calm,Calm,-,N/A,,Scattered Clouds,0,2012-11-10 22:51:00
6:51 PM,55.9,34.0,44,30.25,10.0,Calm,Calm,-,N/A,,Clear,0,2012-11-10 23:51:00
7:51 PM,53.1,35.1,50,30.26,10.0,SSE,3.5,-,N/A,,Clear,160,2012-11-11 00:51:00
8:51 PM,53.1,34.0,48,30.26,10.0,South,3.5,-,N/A,,Clear,170,2012-11-11 01:51:00
9:51 PM,54.0,33.1,45,30.27,10.0,South,3.5,-,N/A,,Clear,180,2012-11-11 02:51:00
10:51 PM,50.0,33.1,52,30.26,10.0,SSE,4.6,-,N/A,,Partly Cloudy,160,2012-11-11 03:51:00
11:51 PM,51.1,33.1,50,30.26,10.0,South,5.8,-,N/A,,Partly Cloudy,170,2012-11-11 04:51:00